• In Deutschland
  • Länderverzeichnis
  • Für 7 Tage
  • Wassertemperatur
  • Satellitenkarten
  • Wetterkarte
  • Widgets
  • user-avatar
    Anmelden

    Stündliche Wetter Zaranj

    Heute, 23 Juni, Freitag

    Zeit Temperatur Niederschläge Wind Luftdruck Luftfeuchtigkeit
    00:00 +43°C° 0 mm 3 m/S 708 mmHg 9%
    01:00 +43°C° 0 mm 4 m/S 708 mmHg 9%
    02:00 +42°C° 0 mm 4 m/S 708 mmHg 11%
    03:00 +41°C° 0 mm 5 m/S 708 mmHg 13%
    04:00 +40°C° 0 mm 6 m/S 708 mmHg 16%
    05:00 +40°C° 0 mm 7 m/S 708 mmHg 17%
    06:00 +40°C° 0 mm 8 m/S 709 mmHg 17%
    07:00 +40°C° 0 mm 9 m/S 709 mmHg 18%
    08:00 +42°C° 0 mm 9 m/S 709 mmHg 17%
    09:00 +44°C° 0 mm 9 m/S 710 mmHg 15%
    10:00 +47°C° 0 mm 9 m/S 710 mmHg 13%
    11:00 +48°C° 0 mm 8 m/S 710 mmHg 11%
    12:00 +49°C° 0 mm 8 m/S 710 mmHg 10%
    13:00 +51°C° 0 mm 7 m/S 710 mmHg 9%
    14:00 +51°C° 0 mm 6 m/S 709 mmHg 8%
    15:00 +51°C° 0 mm 6 m/S 709 mmHg 8%
    16:00 +52°C° 0 mm 5 m/S 708 mmHg 7%
    17:00 +50°C° 0 mm 5 m/S 708 mmHg 8%
    18:00 +49°C° 0 mm 6 m/S 708 mmHg 9%
    19:00 +48°C° 0 mm 6 m/S 708 mmHg 10%
    20:00 +46°C° 0 mm 8 m/S 708 mmHg 12%
    21:00 +45°C° 0 mm 9 m/S 709 mmHg 13%
    22:00 +44°C° 0 mm 11 m/S 709 mmHg 15%
    23:00 +43°C° 0 mm 12 m/S 709 mmHg 17%

    Morgen, 24 Juni, Samstag

    Zeit Temperatur Niederschläge Wind Luftdruck Luftfeuchtigkeit
    00:00 +42°C° 0 mm 12 m/S 709 mmHg 18%
    01:00 +41°C° 0 mm 13 m/S 709 mmHg 20%
    02:00 +39°C° 0 mm 13 m/S 709 mmHg 21%
    03:00 +38°C° 0 mm 13 m/S 709 mmHg 23%
    04:00 +37°C° 0 mm 13 m/S 709 mmHg 25%
    05:00 +37°C° 0 mm 14 m/S 709 mmHg 25%
    06:00 +37°C° 0 mm 14 m/S 710 mmHg 24%
    07:00 +37°C° 0 mm 14 m/S 710 mmHg 24%
    08:00 +40°C° 0 mm 14 m/S 710 mmHg 21%
    09:00 +42°C° 0 mm 14 m/S 711 mmHg 19%
    10:00 +43°C° 0 mm 14 m/S 711 mmHg 16%
    11:00 +45°C° 0 mm 14 m/S 711 mmHg 15%
    12:00 +47°C° 0 mm 14 m/S 710 mmHg 13%
    13:00 +48°C° 0 mm 13 m/S 710 mmHg 12%
    14:00 +48°C° 0 mm 13 m/S 710 mmHg 12%
    15:00 +48°C° 0 mm 13 m/S 709 mmHg 11%
    16:00 +48°C° 0 mm 13 m/S 709 mmHg 11%
    17:00 +47°C° 0 mm 12 m/S 709 mmHg 12%
    18:00 +46°C° 0 mm 12 m/S 709 mmHg 13%
    19:00 +44°C° 0 mm 11 m/S 709 mmHg 13%
    20:00 +43°C° 0 mm 11 m/S 709 mmHg 14%
    21:00 +43°C° 0 mm 11 m/S 710 mmHg 15%
    22:00 +42°C° 0 mm 12 m/S 710 mmHg 16%
    23:00 +41°C° 0 mm 12 m/S 710 mmHg 17%

    übermorgen, 25 Juni, Sonntag

    Zeit Temperatur Niederschläge Wind Luftdruck Luftfeuchtigkeit
    00:00 +39°C° 0 mm 12 m/S 710 mmHg 17%
    01:00 +38°C° 0 mm 13 m/S 710 mmHg 18%
    02:00 +37°C° 0 mm 13 m/S 710 mmHg 19%
    03:00 +37°C° 0 mm 13 m/S 709 mmHg 19%
    04:00 +36°C° 0 mm 12 m/S 709 mmHg 20%
    05:00 +36°C° 0 mm 13 m/S 710 mmHg 19%
    06:00 +37°C° 0 mm 13 m/S 710 mmHg 18%
    07:00 +37°C° 0 mm 14 m/S 711 mmHg 18%
    08:00 +40°C° 0 mm 14 m/S 711 mmHg 16%
    09:00 +41°C° 0 mm 14 m/S 711 mmHg 13%
    10:00 +43°C° 0 mm 15 m/S 711 mmHg 11%
    11:00 +45°C° 0 mm 14 m/S 711 mmHg 10%
    12:00 +46°C° 0 mm 14 m/S 710 mmHg 9%
    13:00 +47°C° 0 mm 14 m/S 710 mmHg 8%
    14:00 +47°C° 0 mm 14 m/S 710 mmHg 8%
    15:00 +47°C° 0 mm 14 m/S 709 mmHg 8%
    16:00 +47°C° 0 mm 14 m/S 709 mmHg 8%
    17:00 +46°C° 0 mm 13 m/S 709 mmHg 9%
    18:00 +45°C° 0 mm 13 m/S 709 mmHg 10%
    19:00 +43°C° 0 mm 12 m/S 709 mmHg 11%
    20:00 +42°C° 0 mm 13 m/S 709 mmHg 12%
    21:00 +41°C° 0 mm 13 m/S 710 mmHg 14%
    22:00 +40°C° 0 mm 14 m/S 710 mmHg 15%
    23:00 +38°C° 0 mm 14 m/S 710 mmHg 15%

    26 Juni, Montag

    Zeit Temperatur Niederschläge Wind Luftdruck Luftfeuchtigkeit
    00:00 +38°C° 0 mm 14 m/S 710 mmHg 15%
    01:00 +37°C° 0 mm 14 m/S 710 mmHg 16%
    02:00 +36°C° 0 mm 14 m/S 710 mmHg 16%
    03:00 +36°C° 0 mm 14 m/S 710 mmHg 17%
    04:00 +34°C° 0 mm 14 m/S 710 mmHg 17%
    05:00 +36°C° 0 mm 14 m/S 710 mmHg 17%
    06:00 +36°C° 0 mm 15 m/S 711 mmHg 16%
    07:00 +37°C° 0 mm 15 m/S 711 mmHg 16%
    08:00 +38°C° 0 mm 16 m/S 711 mmHg 14%
    09:00 +41°C° 0 mm 16 m/S 711 mmHg 12%
    10:00 +44°C° 0 mm 16 m/S 712 mmHg 10%
    11:00 +45°C° 0 mm 16 m/S 711 mmHg 10%
    12:00 +46°C° 0 mm 16 m/S 711 mmHg 9%
    13:00 +47°C° 0 mm 15 m/S 711 mmHg 8%
    14:00 +47°C° 0 mm 15 m/S 710 mmHg 8%
    15:00 +49°C° 0 mm 15 m/S 710 mmHg 8%
    16:00 +49°C° 0 mm 15 m/S 710 mmHg 8%
    17:00 +46°C° 0 mm 14 m/S 710 mmHg 9%
    18:00 +45°C° 0 mm 14 m/S 710 mmHg 10%
    19:00 +43°C° 0 mm 13 m/S 710 mmHg 11%
    20:00 +42°C° 0 mm 14 m/S 710 mmHg 12%
    21:00 +41°C° 0 mm 14 m/S 710 mmHg 13%
    22:00 +40°C° 0 mm 15 m/S 711 mmHg 14%
    23:00 +38°C° 0 mm 15 m/S 710 mmHg 14%

    27 Juni, Dienstag

    Zeit Temperatur Niederschläge Wind Luftdruck Luftfeuchtigkeit
    00:00 +38°C° 0 mm 15 m/S 710 mmHg 14%
    01:00 +37°C° 0 mm 15 m/S 710 mmHg 15%
    02:00 +37°C° 0 mm 15 m/S 710 mmHg 15%
    03:00 +36°C° 0 mm 15 m/S 710 mmHg 15%
    04:00 +36°C° 0 mm 15 m/S 710 mmHg 15%
    05:00 +36°C° 0 mm 15 m/S 710 mmHg 15%
    06:00 +36°C° 0 mm 15 m/S 710 mmHg 14%
    07:00 +37°C° 0 mm 15 m/S 711 mmHg 14%
    08:00 +38°C° 0 mm 15 m/S 711 mmHg 12%
    09:00 +41°C° 0 mm 15 m/S 711 mmHg 11%
    10:00 +43°C° 0 mm 15 m/S 711 mmHg 9%
    11:00 +45°C° 0 mm 15 m/S 711 mmHg 9%
    12:00 +46°C° 0 mm 14 m/S 710 mmHg 8%
    13:00 +47°C° 0 mm 14 m/S 710 mmHg 7%
    14:00 +47°C° 0 mm 14 m/S 709 mmHg 7%
    15:00 +47°C° 0 mm 14 m/S 709 mmHg 7%
    16:00 +47°C° 0 mm 14 m/S 709 mmHg 7%
    17:00 +46°C° 0 mm 14 m/S 709 mmHg 8%
    18:00 +45°C° 0 mm 14 m/S 709 mmHg 8%
    19:00 +43°C° 0 mm 14 m/S 709 mmHg 9%
    20:00 +42°C° 0 mm 15 m/S 709 mmHg 10%
    21:00 +41°C° 0 mm 15 m/S 709 mmHg 11%
    22:00 +40°C° 0 mm 16 m/S 709 mmHg 12%
    23:00 +40°C° 0 mm 16 m/S 709 mmHg 12%

    28 Juni, Mittwoch

    Zeit Temperatur Niederschläge Wind Luftdruck Luftfeuchtigkeit
    00:00 +38°C° 0 mm 16 m/S 709 mmHg 13%
    01:00 +38°C° 0 mm 16 m/S 708 mmHg 14%
    02:00 +37°C° 0 mm 16 m/S 708 mmHg 14%
    03:00 +37°C° 0 mm 16 m/S 708 mmHg 15%
    04:00 +36°C° 0 mm 16 m/S 708 mmHg 15%
    05:00 +37°C° 0 mm 16 m/S 709 mmHg 15%
    06:00 +37°C° 0 mm 17 m/S 709 mmHg 15%
    07:00 +37°C° 0 mm 17 m/S 709 mmHg 15%
    08:00 +38°C° 0 mm 17 m/S 710 mmHg 14%
    09:00 +41°C° 0 mm 16 m/S 710 mmHg 12%
    10:00 +44°C° 0 mm 16 m/S 710 mmHg 11%
    11:00 +45°C° 0 mm 15 m/S 710 mmHg 10%
    12:00 +45°C° 0 mm 15 m/S 709 mmHg 10%
    13:00 +46°C° 0 mm 14 m/S 709 mmHg 9%
    14:00 +47°C° 0 mm 14 m/S 709 mmHg 9%
    15:00 +47°C° 0 mm 14 m/S 709 mmHg 9%
    16:00 +47°C° 0 mm 14 m/S 708 mmHg 9%
    17:00 +46°C° 0 mm 14 m/S 708 mmHg 10%
    18:00 +45°C° 0 mm 13 m/S 708 mmHg 11%
    19:00 +42°C° 0 mm 13 m/S 708 mmHg 12%
    20:00 +42°C° 0 mm 14 m/S 709 mmHg 13%
    21:00 +41°C° 0 mm 14 m/S 709 mmHg 14%
    22:00 +40°C° 0 mm 14 m/S 709 mmHg 15%
    23:00 +38°C° 0 mm 14 m/S 709 mmHg 15%
    Mehr zeigen